datetime,flow
1967-10-01,27.0
1967-10-02,27.0
1967-10-03,26.0
1967-10-04,27.0
1967-10-05,30.0
1967-10-06,28.0
1967-10-07,28.0
1967-10-08,27.0
1967-10-09,26.0
1967-10-10,26.0
1967-10-11,26.0
1967-10-12,26.0
1967-10-13,25.0
1967-10-14,24.0
1967-10-15,24.0
1967-10-16,22.0
1967-10-17,21.0
1967-10-18,22.0
1967-10-19,21.0
1967-10-20,20.0
1967-10-21,20.0
1967-10-22,20.0
1967-10-23,20.0
1967-10-24,19.0
1967-10-25,20.0
1967-10-26,20.0
1967-10-27,18.0
1967-10-28,20.0
1967-10-29,20.0
1967-10-30,20.0
1967-10-31,20.0
1967-11-01,21.0
1967-11-02,22.0
1967-11-03,24.0
1967-11-04,20.0
1967-11-05,22.0
1967-11-06,19.0
1967-11-07,22.0
1967-11-08,24.0
1967-11-09,22.0
1967-11-10,22.0
1967-11-11,19.0
1967-11-12,20.0
1967-11-13,21.0
1967-11-14,22.0
1967-11-15,22.0
1967-11-16,20.0
1967-11-17,20.0
1967-11-18,19.0
1967-11-19,19.0
1967-11-20,19.0
1967-11-21,20.0
1967-11-22,19.0
1967-11-23,19.0
1967-11-24,18.0
1967-11-25,18.0
1967-11-26,17.0
1967-11-27,16.0
1967-11-28,17.0
1967-11-29,18.0
1967-11-30,20.0
1967-12-01,18.0
1967-12-02,18.0
1967-12-03,20.0
1967-12-04,20.0
1967-12-05,18.0
1967-12-06,18.0
1967-12-07,18.0
1967-12-08,18.0
1967-12-09,17.0
1967-12-10,16.0
1967-12-11,15.0
1967-12-12,18.0
1967-12-13,17.0
1967-12-14,17.0
1967-12-15,18.0
1967-12-16,18.0
1967-12-17,17.0
1967-12-18,17.0
1967-12-19,17.0
1967-12-20,17.0
1967-12-21,17.0
1967-12-22,16.0
1967-12-23,17.0
1967-12-24,17.0
1967-12-25,17.0
1967-12-26,17.0
1967-12-27,17.0
1967-12-28,17.0
1967-12-29,17.0
1967-12-30,17.0
1967-12-31,17.0
1968-01-01,17.0
1968-01-02,16.0
1968-01-03,16.0
1968-01-04,16.0
1968-01-05,15.0
1968-01-06,15.0
1968-01-07,15.0
1968-01-08,15.0
1968-01-09,15.0
1968-01-10,15.0
1968-01-11,15.0
1968-01-12,15.0
1968-01-13,15.0
1968-01-14,15.0
1968-01-15,15.0
1968-01-16,15.0
1968-01-17,15.0
1968-01-18,15.0
1968-01-19,15.0
1968-01-20,15.0
1968-01-21,15.0
1968-01-22,15.0
1968-01-23,15.0
1968-01-24,15.0
1968-01-25,15.0
1968-01-26,14.0
1968-01-27,14.0
1968-01-28,14.0
1968-01-29,14.0
1968-01-30,14.0
1968-01-31,13.0
1968-02-01,13.0
1968-02-02,13.0
1968-02-03,14.0
1968-02-04,12.0
1968-02-05,12.0
1968-02-06,12.0
1968-02-07,13.0
1968-02-08,12.0
1968-02-09,12.0
1968-02-10,12.0
1968-02-11,14.0
1968-02-12,16.0
1968-02-13,15.0
1968-02-14,16.0
1968-02-15,15.0
1968-02-16,14.0
1968-02-17,13.0
1968-02-18,13.0
1968-02-19,13.0
1968-02-20,12.0
1968-02-21,12.0
1968-02-22,11.0
1968-02-23,12.0
1968-02-24,11.0
1968-02-25,10.0
1968-02-26,12.0
1968-02-27,11.0
1968-02-28,12.0
1968-02-29,10.0
1968-03-01,11.0
1968-03-02,10.0
1968-03-03,10.0
1968-03-04,10.0
1968-03-05,12.0
1968-03-06,12.0
1968-03-07,13.0
1968-03-08,13.0
1968-03-09,13.0
1968-03-10,13.0
1968-03-11,12.0
1968-03-12,12.0
1968-03-13,13.0
1968-03-14,14.0
1968-03-15,13.0
1968-03-16,12.0
1968-03-17,13.0
1968-03-18,13.0
1968-03-19,11.0
1968-03-20,9.6
1968-03-21,11.0
1968-03-22,13.0
1968-03-23,14.0
1968-03-24,13.0
1968-03-25,13.0
1968-03-26,13.0
1968-03-27,13.0
1968-03-28,12.0
1968-03-29,13.0
1968-03-30,14.0
1968-03-31,15.0
1968-04-01,16.0
1968-04-02,16.0
1968-04-03,15.0
1968-04-04,16.0
1968-04-05,16.0
1968-04-06,16.0
1968-04-07,15.0
1968-04-08,15.0
1968-04-09,15.0
1968-04-10,16.0
1968-04-11,17.0
1968-04-12,17.0
1968-04-13,18.0
1968-04-14,18.0
1968-04-15,18.0
1968-04-16,18.0
1968-04-17,18.0
1968-04-18,18.0
1968-04-19,18.0
1968-04-20,17.0
1968-04-21,17.0
1968-04-22,16.0
1968-04-23,16.0
1968-04-24,17.0
1968-04-25,18.0
1968-04-26,18.0
1968-04-27,18.0
1968-04-28,17.0
1968-04-29,20.0
1968-04-30,25.0
1968-05-01,31.0
1968-05-02,36.0
1968-05-03,40.0
1968-05-04,57.0
1968-05-05,75.0
1968-05-06,78.0
1968-05-07,63.0
1968-05-08,57.0
1968-05-09,66.0
1968-05-10,66.0
1968-05-11,66.0
1968-05-12,81.0
1968-05-13,75.0
1968-05-14,62.0
1968-05-15,67.0
1968-05-16,56.0
1968-05-17,47.0
1968-05-18,50.0
1968-05-19,55.0
1968-05-20,67.0
1968-05-21,78.0
1968-05-22,113.0
1968-05-23,131.0
1968-05-24,115.0
1968-05-25,95.0
1968-05-26,97.0
1968-05-27,95.0
1968-05-28,113.0
1968-05-29,160.0
1968-05-30,190.0
1968-05-31,233.0
1968-06-01,295.0
1968-06-02,352.0
1968-06-03,439.0
1968-06-04,488.0
1968-06-05,488.0
1968-06-06,480.0
1968-06-07,450.0
1968-06-08,320.0
1968-06-09,260.0
1968-06-10,250.0
1968-06-11,250.0
1968-06-12,280.0
1968-06-13,320.0
1968-06-14,320.0
1968-06-15,330.0
1968-06-16,340.0
1968-06-17,360.0
1968-06-18,388.0
1968-06-19,382.0
1968-06-20,376.0
1968-06-21,388.0
1968-06-22,335.0
1968-06-23,300.0
1968-06-24,272.0
1968-06-25,258.0
1968-06-26,199.0
1968-06-27,196.0
1968-06-28,202.0
1968-06-29,190.0
1968-06-30,160.0
1968-07-01,131.0
1968-07-02,120.0
1968-07-03,120.0
1968-07-04,122.0
1968-07-05,127.0
1968-07-06,118.0
1968-07-07,109.0
1968-07-08,111.0
1968-07-09,118.0
1968-07-10,118.0
1968-07-11,109.0
1968-07-12,100.0
1968-07-13,102.0
1968-07-14,95.0
1968-07-15,92.0
1968-07-16,81.0
1968-07-17,73.0
1968-07-18,69.0
1968-07-19,75.0
1968-07-20,69.0
1968-07-21,63.0
1968-07-22,63.0
1968-07-23,70.0
1968-07-24,65.0
1968-07-25,61.0
1968-07-26,75.0
1968-07-27,109.0
1968-07-28,124.0
1968-07-29,100.0
1968-07-30,85.0
1968-07-31,107.0
1968-08-01,109.0
1968-08-02,95.0
1968-08-03,95.0
1968-08-04,81.0
1968-08-05,72.0
1968-08-06,95.0
1968-08-07,131.0
1968-08-08,184.0
1968-08-09,160.0
1968-08-10,196.0
1968-08-11,229.0
1968-08-12,175.0
1968-08-13,145.0
1968-08-14,148.0
1968-08-15,151.0
1968-08-16,118.0
1968-08-17,102.0
1968-08-18,93.0
1968-08-19,85.0
1968-08-20,77.0
1968-08-21,75.0
1968-08-22,70.0
1968-08-23,65.0
1968-08-24,62.0
1968-08-25,59.0
1968-08-26,56.0
1968-08-27,60.0
1968-08-28,86.0
1968-08-29,63.0
1968-08-30,56.0
1968-08-31,50.0
1968-09-01,46.0
1968-09-02,45.0
1968-09-03,57.0
1968-09-04,66.0
1968-09-05,57.0
1968-09-06,52.0
1968-09-07,47.0
1968-09-08,43.0
1968-09-09,41.0
1968-09-10,40.0
1968-09-11,39.0
1968-09-12,38.0
1968-09-13,38.0
1968-09-14,41.0
1968-09-15,40.0
1968-09-16,40.0
1968-09-17,44.0
1968-09-18,44.0
1968-09-19,43.0
1968-09-20,40.0
1968-09-21,38.0
1968-09-22,36.0
1968-09-23,34.0
1968-09-24,33.0
1968-09-25,32.0
1968-09-26,32.0
1968-09-27,32.0
1968-09-28,31.0
1968-09-29,32.0
1968-09-30,32.0
1968-10-01,32.0
1968-10-02,31.0
1968-10-03,29.0
1968-10-04,29.0
1968-10-05,31.0
1968-10-06,29.0
1968-10-07,29.0
1968-10-08,30.0
1968-10-09,30.0
1968-10-10,32.0
1968-10-11,32.0
1968-10-12,31.0
1968-10-13,29.0
1968-10-14,28.0
1968-10-15,27.0
1968-10-16,26.0
1968-10-17,26.0
1968-10-18,28.0
1968-10-19,27.0
1968-10-20,26.0
1968-10-21,26.0
1968-10-22,24.0
1968-10-23,26.0
1968-10-24,25.0
1968-10-25,24.0
1968-10-26,24.0
1968-10-27,24.0
1968-10-28,24.0
1968-10-29,23.0
1968-10-30,23.0
1968-10-31,24.0
1968-11-01,23.0
1968-11-02,24.0
1968-11-03,23.0
1968-11-04,24.0
1968-11-05,24.0
1968-11-06,23.0
1968-11-07,22.0
1968-11-08,20.0
1968-11-09,23.0
1968-11-10,23.0
1968-11-11,25.0
1968-11-12,25.0
1968-11-13,24.0
1968-11-14,23.0
1968-11-15,22.0
1968-11-16,23.0
1968-11-17,22.0
1968-11-18,22.0
1968-11-19,22.0
1968-11-20,23.0
1968-11-21,23.0
1968-11-22,23.0
1968-11-23,23.0
1968-11-24,23.0
1968-11-25,23.0
1968-11-26,22.0
1968-11-27,21.0
1968-11-28,23.0
1968-11-29,22.0
1968-11-30,21.0
1968-12-01,20.0
1968-12-02,20.0
1968-12-03,20.0
1968-12-04,20.0
1968-12-05,20.0
1968-12-06,20.0
1968-12-07,20.0
1968-12-08,20.0
1968-12-09,20.0
1968-12-10,18.0
1968-12-11,18.0
1968-12-12,18.0
1968-12-13,18.0
1968-12-14,20.0
1968-12-15,20.0
1968-12-16,18.0
1968-12-17,18.0
1968-12-18,17.0
1968-12-19,18.0
1968-12-20,18.0
1968-12-21,17.0
1968-12-22,17.0
1968-12-23,17.0
1968-12-24,16.0
1968-12-25,15.0
1968-12-26,15.0
1968-12-27,15.0
1968-12-28,14.0
1968-12-29,14.0
1968-12-30,14.0
1968-12-31,14.0
1969-01-01,14.0
1969-01-02,14.0
1969-01-03,14.0
1969-01-04,14.0
1969-01-05,12.0
1969-01-06,12.0
1969-01-07,12.0
1969-01-08,12.0
1969-01-09,13.0
1969-01-10,12.0
1969-01-11,12.0
1969-01-12,12.0
1969-01-13,12.0
1969-01-14,12.0
1969-01-15,11.0
1969-01-16,11.0
1969-01-17,11.0
1969-01-18,10.0
1969-01-19,11.0
1969-01-20,12.0
1969-01-21,12.0
1969-01-22,12.0
1969-01-23,11.0
1969-01-24,11.0
1969-01-25,11.0
1969-01-26,11.0
1969-01-27,11.0
1969-01-28,11.0
1969-01-29,11.0
1969-01-30,11.0
1969-01-31,11.0
1969-02-01,12.0
1969-02-02,11.0
1969-02-03,11.0
1969-02-04,11.0
1969-02-05,11.0
1969-02-06,12.0
1969-02-07,12.0
1969-02-08,11.0
1969-02-09,11.0
1969-02-10,11.0
1969-02-11,12.0
1969-02-12,12.0
1969-02-13,12.0
1969-02-14,11.0
1969-02-15,11.0
1969-02-16,11.0
1969-02-17,12.0
1969-02-18,11.0
1969-02-19,11.0
1969-02-20,11.0
1969-02-21,11.0
1969-02-22,11.0
1969-02-23,11.0
1969-02-24,11.0
1969-02-25,12.0
1969-02-26,12.0
1969-02-27,12.0
1969-02-28,12.0
1969-03-01,12.0
1969-03-02,12.0
1969-03-03,11.0
1969-03-04,11.0
1969-03-05,11.0
1969-03-06,11.0
1969-03-07,11.0
1969-03-08,11.0
1969-03-09,10.0
1969-03-10,11.0
1969-03-11,11.0
1969-03-12,10.0
1969-03-13,11.0
1969-03-14,12.0
1969-03-15,12.0
1969-03-16,13.0
1969-03-17,13.0
1969-03-18,12.0
1969-03-19,11.0
1969-03-20,13.0
1969-03-21,13.0
1969-03-22,13.0
1969-03-23,12.0
1969-03-24,12.0
1969-03-25,11.0
1969-03-26,13.0
1969-03-27,15.0
1969-03-28,15.0
1969-03-29,16.0
1969-03-30,17.0
1969-03-31,17.0
1969-04-01,17.0
1969-04-02,16.0
1969-04-03,17.0
1969-04-04,21.0
1969-04-05,24.0
1969-04-06,26.0
1969-04-07,28.0
1969-04-08,25.0
1969-04-09,25.0
1969-04-10,28.0
1969-04-11,32.0
1969-04-12,35.0
1969-04-13,40.0
1969-04-14,47.0
1969-04-15,39.0
1969-04-16,36.0
1969-04-17,34.0
1969-04-18,34.0
1969-04-19,40.0
1969-04-20,62.0
1969-04-21,98.0
1969-04-22,102.0
1969-04-23,100.0
1969-04-24,113.0
1969-04-25,107.0
1969-04-26,75.0
1969-04-27,65.0
1969-04-28,59.0
1969-04-29,62.0
1969-04-30,65.0
1969-05-01,70.0
1969-05-02,92.0
1969-05-03,102.0
1969-05-04,107.0
1969-05-05,118.0
1969-05-06,113.0
1969-05-07,115.0
1969-05-08,104.0
1969-05-09,122.0
1969-05-10,118.0
1969-05-11,113.0
1969-05-12,109.0
1969-05-13,111.0
1969-05-14,129.0
1969-05-15,148.0
1969-05-16,138.0
1969-05-17,136.0
1969-05-18,184.0
1969-05-19,209.0
1969-05-20,268.0
1969-05-21,346.0
1969-05-22,382.0
1969-05-23,406.0
1969-05-24,346.0
1969-05-25,376.0
1969-05-26,426.0
1969-05-27,480.0
1969-05-28,518.0
1969-05-29,480.0
1969-05-30,502.0
1969-05-31,495.0
1969-06-01,382.0
1969-06-02,305.0
1969-06-03,281.0
1969-06-04,281.0
1969-06-05,315.0
1969-06-06,358.0
1969-06-07,330.0
1969-06-08,290.0
1969-06-09,305.0
1969-06-10,305.0
1969-06-11,263.0
1969-06-12,221.0
1969-06-13,199.0
1969-06-14,196.0
1969-06-15,217.0
1969-06-16,263.0
1969-06-17,286.0
1969-06-18,290.0
1969-06-19,225.0
1969-06-20,221.0
1969-06-21,221.0
1969-06-22,217.0
1969-06-23,190.0
1969-06-24,196.0
1969-06-25,217.0
1969-06-26,193.0
1969-06-27,169.0
1969-06-28,193.0
1969-06-29,193.0
1969-06-30,178.0
1969-07-01,184.0
1969-07-02,187.0
1969-07-03,193.0
1969-07-04,184.0
1969-07-05,175.0
1969-07-06,160.0
1969-07-07,143.0
1969-07-08,127.0
1969-07-09,118.0
1969-07-10,111.0
1969-07-11,109.0
1969-07-12,107.0
1969-07-13,102.0
1969-07-14,104.0
1969-07-15,113.0
1969-07-16,102.0
1969-07-17,100.0
1969-07-18,95.0
1969-07-19,102.0
1969-07-20,175.0
1969-07-21,122.0
1969-07-22,100.0
1969-07-23,92.0
1969-07-24,86.0
1969-07-25,85.0
1969-07-26,81.0
1969-07-27,75.0
1969-07-28,70.0
1969-07-29,73.0
1969-07-30,113.0
1969-07-31,93.0
1969-08-01,78.0
1969-08-02,72.0
1969-08-03,69.0
1969-08-04,70.0
1969-08-05,65.0
1969-08-06,61.0
1969-08-07,56.0
1969-08-08,53.0
1969-08-09,51.0
1969-08-10,50.0
1969-08-11,50.0
1969-08-12,52.0
1969-08-13,61.0
1969-08-14,57.0
1969-08-15,53.0
1969-08-16,46.0
1969-08-17,45.0
1969-08-18,44.0
1969-08-19,45.0
1969-08-20,48.0
1969-08-21,55.0
1969-08-22,48.0
1969-08-23,44.0
1969-08-24,44.0
1969-08-25,39.0
1969-08-26,37.0
1969-08-27,35.0
1969-08-28,40.0
1969-08-29,43.0
1969-08-30,47.0
1969-08-31,41.0
1969-09-01,37.0
1969-09-02,34.0
1969-09-03,32.0
1969-09-04,31.0
1969-09-05,32.0
1969-09-06,31.0
1969-09-07,32.0
1969-09-08,36.0
1969-09-09,42.0
1969-09-10,45.0
1969-09-11,44.0
1969-09-12,39.0
1969-09-13,36.0
1969-09-14,35.0
1969-09-15,35.0
1969-09-16,40.0
1969-09-17,45.0
1969-09-18,45.0
1969-09-19,41.0
1969-09-20,39.0
1969-09-21,38.0
1969-09-22,38.0
1969-09-23,35.0
1969-09-24,34.0
1969-09-25,33.0
1969-09-26,32.0
1969-09-27,32.0
1969-09-28,31.0
1969-09-29,30.0
1969-09-30,30.0
1969-10-01,32.0
1969-10-02,29.0
1969-10-03,33.0
1969-10-04,35.0
1969-10-05,32.0
1969-10-06,33.0
1969-10-07,33.0
1969-10-08,34.0
1969-10-09,36.0
1969-10-10,38.0
1969-10-11,35.0
1969-10-12,33.0
1969-10-13,34.0
1969-10-14,34.0
1969-10-15,34.0
1969-10-16,32.0
1969-10-17,36.0
1969-10-18,35.0
1969-10-19,34.0
1969-10-20,32.0
1969-10-21,32.0
1969-10-22,33.0
1969-10-23,33.0
1969-10-24,32.0
1969-10-25,33.0
1969-10-26,32.0
1969-10-27,33.0
1969-10-28,33.0
1969-10-29,32.0
1969-10-30,30.0
1969-10-31,29.0
1969-11-01,31.0
1969-11-02,27.0
1969-11-03,27.0
1969-11-04,25.0
1969-11-05,24.0
1969-11-06,24.0
1969-11-07,24.0
1969-11-08,24.0
1969-11-09,25.0
1969-11-10,27.0
1969-11-11,27.0
1969-11-12,27.0
1969-11-13,26.0
1969-11-14,25.0
1969-11-15,25.0
1969-11-16,26.0
1969-11-17,25.0
1969-11-18,24.0
1969-11-19,25.0
1969-11-20,24.0
1969-11-21,25.0
1969-11-22,25.0
1969-11-23,25.0
1969-11-24,25.0
1969-11-25,23.0
1969-11-26,22.0
1969-11-27,20.0
1969-11-28,20.0
1969-11-29,19.0
1969-11-30,17.0
1969-12-01,18.0
1969-12-02,19.0
1969-12-03,18.0
1969-12-04,17.0
1969-12-05,17.0
1969-12-06,17.0
1969-12-07,18.0
1969-12-08,18.0
1969-12-09,18.0
1969-12-10,18.0
1969-12-11,18.0
1969-12-12,18.0
1969-12-13,18.0
1969-12-14,19.0
1969-12-15,18.0
1969-12-16,19.0
1969-12-17,18.0
1969-12-18,18.0
1969-12-19,18.0
1969-12-20,22.0
1969-12-21,21.0
1969-12-22,21.0
1969-12-23,23.0
1969-12-24,22.0
1969-12-25,21.0
1969-12-26,22.0
1969-12-27,22.0
1969-12-28,21.0
1969-12-29,20.0
1969-12-30,18.0
1969-12-31,18.0
1970-01-01,18.0
1970-01-02,16.0
1970-01-03,17.0
1970-01-04,17.0
1970-01-05,17.0
1970-01-06,18.0
1970-01-07,18.0
1970-01-08,18.0
1970-01-09,18.0
1970-01-10,18.0
1970-01-11,18.0
1970-01-12,17.0
1970-01-13,15.0
1970-01-14,13.0
1970-01-15,12.0
1970-01-16,12.0
1970-01-17,12.0
1970-01-18,12.0
1970-01-19,13.0
1970-01-20,13.0
1970-01-21,13.0
1970-01-22,14.0
1970-01-23,14.0
1970-01-24,14.0
1970-01-25,14.0
1970-01-26,14.0
1970-01-27,13.0
1970-01-28,14.0
1970-01-29,13.0
1970-01-30,13.0
1970-01-31,13.0
1970-02-01,14.0
1970-02-02,14.0
1970-02-03,13.0
1970-02-04,13.0
1970-02-05,13.0
1970-02-06,13.0
1970-02-07,14.0
1970-02-08,15.0
1970-02-09,15.0
1970-02-10,15.0
1970-02-11,14.0
1970-02-12,14.0
1970-02-13,14.0
1970-02-14,13.0
1970-02-15,13.0
1970-02-16,13.0
1970-02-17,13.0
1970-02-18,13.0
1970-02-19,13.0
1970-02-20,14.0
1970-02-21,14.0
1970-02-22,14.0
1970-02-23,14.0
1970-02-24,14.0
1970-02-25,13.0
1970-02-26,13.0
1970-02-27,13.0
1970-02-28,13.0
1970-03-01,14.0
1970-03-02,14.0
1970-03-03,14.0
1970-03-04,13.0
1970-03-05,12.0
1970-03-06,12.0
1970-03-07,12.0
1970-03-08,12.0
1970-03-09,12.0
1970-03-10,11.0
1970-03-11,12.0
1970-03-12,11.0
1970-03-13,11.0
1970-03-14,11.0
1970-03-15,11.0
1970-03-16,12.0
1970-03-17,12.0
1970-03-18,11.0
1970-03-19,11.0
1970-03-20,12.0
1970-03-21,13.0
1970-03-22,12.0
1970-03-23,11.0
1970-03-24,11.0
1970-03-25,10.0
1970-03-26,10.0
1970-03-27,10.0
1970-03-28,11.0
1970-03-29,11.0
1970-03-30,11.0
1970-03-31,12.0
1970-04-01,11.0
1970-04-02,10.0
1970-04-03,10.0
1970-04-04,11.0
1970-04-05,11.0
1970-04-06,12.0
1970-04-07,10.0
1970-04-08,10.0
1970-04-09,11.0
1970-04-10,11.0
1970-04-11,11.0
1970-04-12,11.0
1970-04-13,11.0
1970-04-14,11.0
1970-04-15,11.0
1970-04-16,12.0
1970-04-17,12.0
1970-04-18,12.0
1970-04-19,11.0
1970-04-20,11.0
1970-04-21,13.0
1970-04-22,12.0
1970-04-23,12.0
1970-04-24,12.0
1970-04-25,13.0
1970-04-26,16.0
1970-04-27,20.0
1970-04-28,22.0
1970-04-29,20.0
1970-04-30,21.0
1970-05-01,21.0
1970-05-02,23.0
1970-05-03,31.0
1970-05-04,48.0
1970-05-05,75.0
1970-05-06,107.0
1970-05-07,138.0
1970-05-08,163.0
1970-05-09,148.0
1970-05-10,151.0
1970-05-11,221.0
1970-05-12,286.0
1970-05-13,281.0
1970-05-14,225.0
1970-05-15,178.0
1970-05-16,221.0
1970-05-17,305.0
1970-05-18,394.0
1970-05-19,465.0
1970-05-20,480.0
1970-05-21,548.0
1970-05-22,592.0
1970-05-23,631.0
1970-05-24,608.0
1970-05-25,585.0
1970-05-26,615.0
1970-05-27,623.0
1970-05-28,631.0
1970-05-29,532.0
1970-05-30,525.0
1970-05-31,495.0
1970-06-01,426.0
1970-06-02,370.0
1970-06-03,388.0
1970-06-04,420.0
1970-06-05,406.0
1970-06-06,406.0
1970-06-07,420.0
1970-06-08,439.0
1970-06-09,420.0
1970-06-10,406.0
1970-06-11,406.0
1970-06-12,330.0
1970-06-13,286.0
1970-06-14,281.0
1970-06-15,286.0
1970-06-16,295.0
1970-06-17,320.0
1970-06-18,364.0
1970-06-19,413.0
1970-06-20,413.0
1970-06-21,420.0
1970-06-22,432.0
1970-06-23,420.0
1970-06-24,413.0
1970-06-25,420.0
1970-06-26,406.0
1970-06-27,376.0
1970-06-28,358.0
1970-06-29,346.0
1970-06-30,320.0
1970-07-01,263.0
1970-07-02,221.0
1970-07-03,209.0
1970-07-04,199.0
1970-07-05,199.0
1970-07-06,229.0
1970-07-07,233.0
1970-07-08,205.0
1970-07-09,199.0
1970-07-10,217.0
1970-07-11,187.0
1970-07-12,187.0
1970-07-13,157.0
1970-07-14,140.0
1970-07-15,131.0
1970-07-16,124.0
1970-07-17,120.0
1970-07-18,129.0
1970-07-19,120.0
1970-07-20,109.0
1970-07-21,98.0
1970-07-22,97.0
1970-07-23,100.0
1970-07-24,90.0
1970-07-25,83.0
1970-07-26,80.0
1970-07-27,86.0
1970-07-28,80.0
1970-07-29,73.0
1970-07-30,69.0
1970-07-31,65.0
1970-08-01,60.0
1970-08-02,59.0
1970-08-03,62.0
1970-08-04,85.0
1970-08-05,113.0
1970-08-06,90.0
1970-08-07,77.0
1970-08-08,100.0
1970-08-09,80.0
1970-08-10,67.0
1970-08-11,62.0
1970-08-12,56.0
1970-08-13,55.0
1970-08-14,52.0
1970-08-15,53.0
1970-08-16,52.0
1970-08-17,47.0
1970-08-18,45.0
1970-08-19,46.0
1970-08-20,69.0
1970-08-21,77.0
1970-08-22,86.0
1970-08-23,69.0
1970-08-24,59.0
1970-08-25,53.0
1970-08-26,46.0
1970-08-27,46.0
1970-08-28,47.0
1970-08-29,43.0
1970-08-30,44.0
1970-08-31,61.0
1970-09-01,51.0
1970-09-02,60.0
1970-09-03,48.0
1970-09-04,43.0
1970-09-05,43.0
1970-09-06,70.0
1970-09-07,57.0
1970-09-08,46.0
1970-09-09,41.0
1970-09-10,40.0
1970-09-11,37.0
1970-09-12,39.0
1970-09-13,63.0
1970-09-14,59.0
1970-09-15,47.0
1970-09-16,41.0
1970-09-17,40.0
1970-09-18,38.0
1970-09-19,37.0
1970-09-20,36.0
1970-09-21,35.0
1970-09-22,41.0
1970-09-23,43.0
1970-09-24,51.0
1970-09-25,48.0
1970-09-26,42.0
1970-09-27,45.0
1970-09-28,42.0
1970-09-29,41.0
1970-09-30,40.0
1970-10-01,39.0
1970-10-02,37.0
1970-10-03,37.0
1970-10-04,36.0
1970-10-05,35.0
1970-10-06,39.0
1970-10-07,43.0
1970-10-08,41.0
1970-10-09,36.0
1970-10-10,43.0
1970-10-11,41.0
1970-10-12,43.0
1970-10-13,50.0
1970-10-14,47.0
1970-10-15,45.0
1970-10-16,43.0
1970-10-17,40.0
1970-10-18,36.0
1970-10-19,36.0
1970-10-20,36.0
1970-10-21,40.0
1970-10-22,40.0
1970-10-23,39.0
1970-10-24,37.0
1970-10-25,37.0
1970-10-26,33.0
1970-10-27,32.0
1970-10-28,31.0
1970-10-29,32.0
1970-10-30,30.0
1970-10-31,32.0
1970-11-01,33.0
1970-11-02,30.0
1970-11-03,29.0
1970-11-04,28.0
1970-11-05,30.0
1970-11-06,31.0
1970-11-07,31.0
1970-11-08,31.0
1970-11-09,31.0
1970-11-10,31.0
1970-11-11,31.0
1970-11-12,31.0
1970-11-13,29.0
1970-11-14,30.0
1970-11-15,32.0
1970-11-16,31.0
1970-11-17,30.0
1970-11-18,29.0
1970-11-19,29.0
1970-11-20,28.0
1970-11-21,27.0
1970-11-22,26.0
1970-11-23,26.0
1970-11-24,27.0
1970-11-25,27.0
1970-11-26,27.0
1970-11-27,27.0
1970-11-28,26.0
1970-11-29,25.0
1970-11-30,24.0
1970-12-01,26.0
1970-12-02,25.0
1970-12-03,25.0
1970-12-04,26.0
1970-12-05,25.0
1970-12-06,24.0
1970-12-07,25.0
1970-12-08,26.0
1970-12-09,24.0
1970-12-10,22.0
1970-12-11,23.0
1970-12-12,28.0
1970-12-13,29.0
1970-12-14,29.0
1970-12-15,20.0
1970-12-16,22.0
1970-12-17,22.0
1970-12-18,21.0
1970-12-19,18.0
1970-12-20,19.0
1970-12-21,19.0
1970-12-22,20.0
1970-12-23,18.0
1970-12-24,18.0
1970-12-25,17.0
1970-12-26,17.0
1970-12-27,17.0
1970-12-28,16.0
1970-12-29,17.0
1970-12-30,16.0
1970-12-31,17.0
1971-01-01,15.0
1971-01-02,13.0
1971-01-03,12.0
1971-01-04,11.0
1971-01-05,11.0
1971-01-06,11.0
1971-01-07,11.0
1971-01-08,12.0
1971-01-09,14.0
1971-01-10,19.0
1971-01-11,23.0
1971-01-12,20.0
1971-01-13,19.0
1971-01-14,17.0
1971-01-15,19.0
1971-01-16,18.0
1971-01-17,19.0
1971-01-18,18.0
1971-01-19,19.0
1971-01-20,20.0
1971-01-21,18.0
1971-01-22,17.0
1971-01-23,16.0
1971-01-24,17.0
1971-01-25,18.0
1971-01-26,20.0
1971-01-27,19.0
1971-01-28,18.0
1971-01-29,20.0
1971-01-30,22.0
1971-01-31,24.0
1971-02-01,26.0
1971-02-02,27.0
1971-02-03,21.0
1971-02-04,18.0
1971-02-05,16.0
1971-02-06,13.0
1971-02-07,12.0
1971-02-08,14.0
1971-02-09,15.0
1971-02-10,16.0
1971-02-11,16.0
1971-02-12,15.0
1971-02-13,17.0
1971-02-14,19.0
1971-02-15,21.0
1971-02-16,20.0
1971-02-17,19.0
1971-02-18,18.0
1971-02-19,17.0
1971-02-20,16.0
1971-02-21,15.0
1971-02-22,15.0
1971-02-23,14.0
1971-02-24,14.0
1971-02-25,13.0
1971-02-26,13.0
1971-02-27,13.0
1971-02-28,12.0
1971-03-01,13.0
1971-03-02,14.0
1971-03-03,15.0
1971-03-04,16.0
1971-03-05,15.0
1971-03-06,14.0
1971-03-07,16.0
1971-03-08,19.0
1971-03-09,17.0
1971-03-10,17.0
1971-03-11,18.0
1971-03-12,19.0
1971-03-13,18.0
1971-03-14,15.0
1971-03-15,14.0
1971-03-16,14.0
1971-03-17,13.0
1971-03-18,12.0
1971-03-19,14.0
1971-03-20,16.0
1971-03-21,20.0
1971-03-22,22.0
1971-03-23,23.0
1971-03-24,25.0
1971-03-25,27.0
1971-03-26,34.0
1971-03-27,32.0
1971-03-28,35.0
1971-03-29,38.0
1971-03-30,40.0
1971-03-31,40.0
1971-04-01,33.0
1971-04-02,34.0
1971-04-03,32.0
1971-04-04,39.0
1971-04-05,44.0
1971-04-06,46.0
1971-04-07,44.0
1971-04-08,47.0
1971-04-09,50.0
1971-04-10,52.0
1971-04-11,54.0
1971-04-12,56.0
1971-04-13,58.0
1971-04-14,58.0
1971-04-15,60.0
1971-04-16,56.0
1971-04-17,54.0
1971-04-18,52.0
1971-04-19,50.0
1971-04-20,52.0
1971-04-21,52.0
1971-04-22,55.0
1971-04-23,65.0
1971-04-24,73.0
1971-04-25,72.0
1971-04-26,69.0
1971-04-27,59.0
1971-04-28,56.0
1971-04-29,55.0
1971-04-30,54.0
1971-05-01,63.0
1971-05-02,81.0
1971-05-03,111.0
1971-05-04,127.0
1971-05-05,102.0
1971-05-06,88.0
1971-05-07,88.0
1971-05-08,95.0
1971-05-09,92.0
1971-05-10,81.0
1971-05-11,75.0
1971-05-12,77.0
1971-05-13,93.0
1971-05-14,124.0
1971-05-15,111.0
1971-05-16,124.0
1971-05-17,154.0
1971-05-18,143.0
1971-05-19,120.0
1971-05-20,107.0
1971-05-21,111.0
1971-05-22,143.0
1971-05-23,154.0
1971-05-24,124.0
1971-05-25,127.0
1971-05-26,151.0
1971-05-27,199.0
1971-05-28,254.0
1971-05-29,330.0
1971-05-30,295.0
1971-05-31,196.0
1971-06-01,202.0
1971-06-02,254.0
1971-06-03,281.0
1971-06-04,258.0
1971-06-05,217.0
1971-06-06,221.0
1971-06-07,276.0
1971-06-08,310.0
1971-06-09,310.0
1971-06-10,295.0
1971-06-11,245.0
1971-06-12,272.0
1971-06-13,268.0
1971-06-14,315.0
1971-06-15,340.0
1971-06-16,394.0
1971-06-17,426.0
1971-06-18,458.0
1971-06-19,458.0
1971-06-20,458.0
1971-06-21,446.0
1971-06-22,472.0
1971-06-23,446.0
1971-06-24,439.0
1971-06-25,426.0
1971-06-26,400.0
1971-06-27,370.0
1971-06-28,330.0
1971-06-29,295.0
1971-06-30,254.0
1971-07-01,233.0
1971-07-02,217.0
1971-07-03,213.0
1971-07-04,199.0
1971-07-05,184.0
1971-07-06,175.0
1971-07-07,172.0
1971-07-08,163.0
1971-07-09,175.0
1971-07-10,166.0
1971-07-11,145.0
1971-07-12,140.0
1971-07-13,136.0
1971-07-14,131.0
1971-07-15,131.0
1971-07-16,127.0
1971-07-17,118.0
1971-07-18,118.0
1971-07-19,134.0
1971-07-20,151.0
1971-07-21,120.0
1971-07-22,120.0
1971-07-23,115.0
1971-07-24,118.0
1971-07-25,98.0
1971-07-26,92.0
1971-07-27,90.0
1971-07-28,85.0
1971-07-29,77.0
1971-07-30,75.0
1971-07-31,69.0
1971-08-01,65.0
1971-08-02,66.0
1971-08-03,63.0
1971-08-04,65.0
1971-08-05,66.0
1971-08-06,62.0
1971-08-07,59.0
1971-08-08,55.0
1971-08-09,53.0
1971-08-10,60.0
1971-08-11,54.0
1971-08-12,59.0
1971-08-13,59.0
1971-08-14,55.0
1971-08-15,52.0
1971-08-16,50.0
1971-08-17,47.0
1971-08-18,53.0
1971-08-19,70.0
1971-08-20,62.0
1971-08-21,63.0
1971-08-22,55.0
1971-08-23,52.0
1971-08-24,52.0
1971-08-25,55.0
1971-08-26,52.0
1971-08-27,59.0
1971-08-28,54.0
1971-08-29,60.0
1971-08-30,53.0
1971-08-31,63.0
1971-09-01,54.0
1971-09-02,52.0
1971-09-03,51.0
1971-09-04,54.0
1971-09-05,53.0
1971-09-06,48.0
1971-09-07,48.0
1971-09-08,62.0
1971-09-09,54.0
1971-09-10,48.0
1971-09-11,45.0
1971-09-12,43.0
1971-09-13,40.0
1971-09-14,39.0
1971-09-15,38.0
1971-09-16,37.0
1971-09-17,40.0
1971-09-18,39.0
1971-09-19,40.0
1971-09-20,41.0
1971-09-21,43.0
1971-09-22,40.0
1971-09-23,39.0
1971-09-24,38.0
1971-09-25,37.0
1971-09-26,36.0
1971-09-27,34.0
1971-09-28,32.0
1971-09-29,32.0
1971-09-30,34.0
1971-10-01,35.0
1971-10-02,34.0
1971-10-03,31.0
1971-10-04,30.0
1971-10-05,29.0
1971-10-06,29.0
1971-10-07,29.0
1971-10-08,28.0
1971-10-09,27.0
1971-10-10,27.0
1971-10-11,26.0
1971-10-12,26.0
1971-10-13,25.0
1971-10-14,24.0
1971-10-15,24.0
1971-10-16,25.0
1971-10-17,27.0
1971-10-18,27.0
1971-10-19,26.0